Weather History for Marathon, FL

Change the Weather History Date:

Tuesday, November 13, 2012

  Actual Average Record
Temperature  
Mean Temperature 76 °F 76 °F  
Max Temperature 80 °F 81 °F 87 °F (1997)
Min Temperature 72 °F 71 °F 68 °F (2010)
Degree Days  
Heating Degree Days 0 0  
Month to date heating degree days 0 0  
Since 1 July heating degree days 0 0  
Cooling Degree Days 11 11  
Month to date cooling degree days 114 154  
Year to date cooling degree days 4872 4593  
Growing Degree Days 26 (Base 50)    
Moisture  
Dew Point 66 °F    
Average Humidity 73    
Maximum Humidity 84    
Minimum Humidity 62    
Precipitation  
Precipitation 0.00 in 0.10 in 0.06 in (2004)
Month to date precipitation T 1.47  
Year to date precipitation 43.80 42.80  
Snow  
Snow 0.00 in - - ()
Month to date snowfall 0.0  
Since 1 July snowfall 0.0  
Since 1 September snowfall 0.0  
Snow Depth 0.00 in    
Sea Level Pressure  
Sea Level Pressure 30.07 in    
Wind  
Wind Speed 9 mph (NE)    
Max Wind Speed 15 mph    
Max Gust Speed 21 mph    
Visibility 10 miles    
Events      
T = Trace of Precipitation, MM = Missing Value Source: NWS Daily Summary

Daily Weather History Graph

Daily Weather History Graph

Search for Another Location

Airport:

Trip Planner

Search our weather history database for the weather conditions in past years. The results will help you decide how hot, cold, wet, or windy it might be!

Date:

Astronomy

Nov. 13, 2012 Rise Set
Actual Time 6:39 AM EST 5:37 PM EST
Civil Twilight 6:15 AM EST 6:01 PM EST
Nautical Twilight 5:47 AM EST 6:29 PM EST
Astronomical Twilight 5:20 AM EST 6:56 PM EST
Moon 6:14 AM EST (11/13) 5:32 PM EST (11/13)
Length of Visible Light 11h 46m
Length of Day
10h 58m
Waning Crescent, 0% of the Moon is Illuminated
Nov 13
Waning Crescent
Nov 13
New
Nov 20
First Quarter
Nov 28
Full
Dec 6
Last Quarter

Hourly Weather History & Observations

Time (EST) Temp. Dew Point Humidity Pressure Visibility Wind Dir Wind Speed Gust Speed Precip Events Conditions
12:53 AM 73.0 °F 66.9 °F 81% 30.09 in 10.0 mi NE 8.1 mph - N/A   Partly Cloudy
1:53 AM 73.0 °F 66.0 °F 79% 30.06 in 10.0 mi NNE 5.8 mph - N/A   Clear
2:53 AM 73.0 °F 66.9 °F 81% 30.05 in 10.0 mi NNE 6.9 mph - N/A   Clear
4:53 AM 72.0 °F 66.9 °F 84% 30.06 in 10.0 mi NNE 9.2 mph - N/A   Clear
5:53 AM 72.0 °F 66.9 °F 84% 30.07 in 10.0 mi NNE 8.1 mph - N/A   Clear
6:53 AM 72.0 °F 66.0 °F 81% 30.08 in 10.0 mi NE 10.4 mph - N/A   Clear
7:53 AM 73.9 °F 66.0 °F 76% 30.09 in 10.0 mi NE 12.7 mph - N/A   Clear
8:53 AM 75.0 °F 66.0 °F 73% 30.11 in 10.0 mi NE 13.8 mph - N/A   Clear
9:53 AM 75.9 °F 66.0 °F 71% 30.12 in 10.0 mi NE 12.7 mph - N/A   Clear
10:53 AM 77.0 °F 66.9 °F 71% 30.10 in 10.0 mi NE 8.1 mph - N/A   Clear
11:53 AM 78.1 °F 66.0 °F 66% 30.10 in 10.0 mi NE 9.2 mph - N/A   Clear
12:53 PM 79.0 °F 66.0 °F 64% 30.06 in 10.0 mi NE 9.2 mph - N/A   Clear
1:53 PM 79.0 °F 64.9 °F 62% 30.04 in 10.0 mi NE 13.8 mph - N/A   Clear
2:53 PM 79.0 °F 66.0 °F 64% 30.03 in 10.0 mi NE 11.5 mph - N/A   Clear
3:53 PM 78.1 °F 64.9 °F 64% 30.04 in 10.0 mi NE 9.2 mph - N/A   Clear
4:53 PM 77.0 °F 64.9 °F 66% 30.05 in 10.0 mi NE 10.4 mph - N/A   Clear
5:53 PM 75.9 °F 64.9 °F 69% 30.06 in 10.0 mi NE 9.2 mph - N/A   Clear
6:53 PM 75.0 °F 64.9 °F 71% 30.06 in 10.0 mi NE 9.2 mph - N/A   Clear
7:53 PM 73.9 °F 64.9 °F 73% 30.07 in 10.0 mi NE 5.8 mph - N/A   Clear
8:53 PM 73.9 °F 64.9 °F 73% 30.06 in 10.0 mi NE 8.1 mph - N/A   Clear
9:53 PM 73.9 °F 66.0 °F 76% 30.08 in 10.0 mi NE 9.2 mph - N/A   Partly Cloudy
10:53 PM 73.9 °F 66.0 °F 76% 30.08 in 10.0 mi NNE 6.9 mph - N/A   Scattered Clouds
11:53 PM 73.0 °F 64.9 °F 76% 30.06 in 10.0 mi NE 11.5 mph - N/A   Scattered Clouds